Weather History for New York, NY

Change the Weather History Date:

Sunday, September 23, 2012

  Actual Average Record
Temperature  
Mean Temperature 64 °F 66 °F  
Max Temperature 69 °F 74 °F 93 °F (1970)
Min Temperature 58 °F 59 °F 42 °F (1947)
Degree Days  
Heating Degree Days 1 2  
Month to date heating degree days 2 14  
Since 1 July heating degree days 2 15  
Cooling Degree Days 0 3  
Month to date cooling degree days 171 141  
Year to date cooling degree days 1468 1174  
Growing Degree Days 13 (Base 50)    
Moisture  
Dew Point 46 °F    
Average Humidity 55    
Maximum Humidity 72    
Minimum Humidity 37    
Precipitation  
Precipitation 0.00 in 0.12 in 2.14 in (2011)
Month to date precipitation 3.60 2.81  
Year to date precipitation 27.21 33.06  
Snow  
Snow 0.00 in 0.00 in - ()
Month to date snowfall 0.0 0.0  
Since 1 July snowfall 0.0 0.0  
Snow Depth 0.00 in    
Sea Level Pressure  
Sea Level Pressure 30.01 in    
Wind  
Wind Speed 12 mph (NW)    
Max Wind Speed 24 mph    
Max Gust Speed 30 mph    
Visibility 10 miles    
Events      
T = Trace of Precipitation, MM = Missing Value Source: NWS Daily Summary

Daily Weather History Graph

Daily Weather History Graph

Search for Another Location

Airport:

Trip Planner

Search our weather history database for the weather conditions in past years. The results will help you decide how hot, cold, wet, or windy it might be!

Date:

Astronomy

Sep. 23, 2012 Rise Set
Actual Time 6:44 AM EDT 6:50 PM EDT
Civil Twilight 6:17 AM EDT 7:17 PM EDT
Nautical Twilight 5:45 AM EDT 7:49 PM EDT
Astronomical Twilight 5:12 AM EDT 8:21 PM EDT
Moon 2:51 PM EDT (9/23) No Moon Set
Length of Visible Light 13h 00m
Length of Day
12h 05m
First Quarter, 60% of the Moon is Illuminated
Sep 23
First Quarter
Sep 29
Full
Oct 8
Last Quarter
Oct 15
New
Oct 21
First Quarter

Hourly Weather History & Observations

Time (EDT) Temp. Dew Point Humidity Pressure Visibility Wind Dir Wind Speed Gust Speed Precip Events Conditions
12:51 AM 68.0 °F 59.0 °F 73% 29.86 in 10.0 mi West 6.9 mph - 0.00 in   Overcast
1:51 AM 68.0 °F 57.9 °F 70% 29.86 in 10.0 mi WSW 5.8 mph - N/A   Mostly Cloudy
2:51 AM 69.1 °F 54.0 °F 58% 29.88 in 10.0 mi West 10.4 mph - N/A   Mostly Cloudy
3:51 AM 66.2 °F 53.6 °F 64% 29.89 in 10.0 mi West 10.4 mph 18.4 mph N/A   Mostly Cloudy
4:51 AM 64.9 °F 53.1 °F 65% 29.91 in 10.0 mi West 10.4 mph - N/A   Scattered Clouds
5:51 AM 62.1 °F 53.1 °F 72% 29.94 in 10.0 mi NW 23.0 mph 27.6 mph N/A   Scattered Clouds
6:51 AM 59.0 °F 50.0 °F 72% 29.98 in 10.0 mi NW 18.4 mph 27.6 mph N/A   Scattered Clouds
7:51 AM 57.9 °F 48.0 °F 70% 30.00 in 10.0 mi NW 17.3 mph - N/A   Scattered Clouds
8:51 AM 59.0 °F 46.9 °F 64% 30.02 in 10.0 mi NW 16.1 mph 24.2 mph N/A   Scattered Clouds
9:51 AM 61.0 °F 46.0 °F 58% 30.04 in 10.0 mi NW 19.6 mph - N/A   Scattered Clouds
10:51 AM 63.0 °F 45.0 °F 52% 30.05 in 10.0 mi NW 12.7 mph - N/A   Scattered Clouds
11:51 AM 64.9 °F 41.0 °F 42% 30.05 in 10.0 mi North 12.7 mph - N/A   Scattered Clouds
12:51 PM 66.0 °F 41.0 °F 40% 30.05 in 10.0 mi North 11.5 mph 17.3 mph N/A   Partly Cloudy
1:51 PM 66.9 °F 42.1 °F 40% 30.04 in 10.0 mi NW 11.5 mph - N/A   Scattered Clouds
2:51 PM 68.0 °F 42.1 °F 39% 30.03 in 10.0 mi NNW 16.1 mph - N/A   Scattered Clouds
3:51 PM 68.0 °F 41.0 °F 37% 30.03 in 10.0 mi NW 11.5 mph - N/A   Partly Cloudy
4:51 PM 66.9 °F 41.0 °F 39% 30.04 in 10.0 mi NNW 11.5 mph 18.4 mph N/A   Partly Cloudy
5:51 PM 68.0 °F 41.0 °F 37% 30.05 in 10.0 mi NW 12.7 mph - N/A   Partly Cloudy
6:51 PM 66.0 °F 41.0 °F 40% 30.06 in 10.0 mi NNW 8.1 mph - N/A   Partly Cloudy
7:51 PM 64.9 °F 42.1 °F 43% 30.08 in 10.0 mi NNW 8.1 mph - N/A   Partly Cloudy
8:51 PM 64.9 °F 43.0 °F 45% 30.09 in 10.0 mi NNW 6.9 mph - N/A   Partly Cloudy
9:51 PM 64.0 °F 43.0 °F 46% 30.10 in 10.0 mi NNW 9.2 mph - N/A   Partly Cloudy
10:51 PM 62.1 °F 43.0 °F 50% 30.11 in 10.0 mi NNW 6.9 mph - N/A   Partly Cloudy
11:51 PM 61.0 °F 41.0 °F 48% 30.11 in 10.0 mi NNW 5.8 mph - N/A   Partly Cloudy